EW3608 Weather Reports


Display with metric or nautical units.
time (UTC)temp
F
wind
direction
speed
MPH
gust
MPH
rain 1hr
in
rain 24hr
in
rain mn
in
humidity
%
barometer
mb
20260905182512 88 68 2.0 4.0 0.00 0.00 0.00 26 1019.1
20260905182016 88 54 2.0 5.0 0.00 0.00 0.00 25 1019.1
20260905181529 88 52 3.0 6.0 0.00 0.00 0.00 25 1019.2
20260905181004 88 86 3.0 5.0 0.00 0.00 0.00 24 1019.2
20260905180504 87 117 1.0 8.0 0.00 0.00 0.00 26 1019.2
20260905180010 87 61 2.0 8.0 0.00 0.00 0.00 27 1019.2
20260905175507 87 51 2.0 7.0 0.00 0.00 0.00 26 1019.2
20260905175012 87 54 4.0 7.0 0.00 0.00 0.00 25 1019.3
20260905174524 87 76 2.0 6.0 0.00 0.00 0.00 25 1019.3
20260905174016 87 60 1.0 7.0 0.00 0.00 0.00 27 1019.3
20260905173516 87 27 3.0 7.0 0.00 0.00 0.00 27 1019.3
20260905173006 86 42 1.0 4.0 0.00 0.00 0.00 29 1019.3
20260905172505 86 95 1.0 6.0 0.00 0.00 0.00 30 1019.3
20260905172008 85 62 1.0 7.0 0.00 0.00 0.00 30 1019.3
20260905171525 86 40 2.0 7.0 0.00 0.00 0.00 29 1019.2
20260905171013 86 41 2.0 6.0 0.00 0.00 0.00 30 1019.0
20260905170511 86 26 1.0 6.0 0.00 0.00 0.00 30 1018.9
20260905170029 86 67 1.0 8.0 0.00 0.00 0.00 29 1018.9
20260905165520 85 52 2.0 8.0 0.00 0.00 0.00 29 1019.0
20260905165008 85 53 3.0 7.0 0.00 0.00 0.00 30 1019.0
20260905164508 85 52 1.0 7.0 0.00 0.00 0.00 30 1019.0
20260905164009 85 130 2.0 8.0 0.00 0.00 0.00 31 1019.0
20260905163513 85 21 4.0 7.0 0.00 0.00 0.00 30 1018.9
20260905163031 85 79 1.0 4.0 0.00 0.00 0.00 30 1018.9
20260905162516 85 67 1.0 3.0 0.00 0.00 0.00 29 1018.8
20260905162016 84 15 1.0 5.0 0.00 0.00 0.00 31 1018.8
20260905161533 83 51 3.0 5.0 0.00 0.00 0.00 33 1018.9
20260905161003 83 43 1.0 6.0 0.00 0.00 0.00 38 1018.9
20260905160507 83 67 3.0 6.0 0.00 0.00 0.00 38 1018.9
20260905160015 82 337 1.0 3.0 0.00 0.00 0.00 35 1018.9
20260905155512 81 78 1.0 3.0 0.00 0.00 0.00 38 1018.9
20260905155014 80 24 1.0 3.0 0.00 0.00 0.00 39 1018.9
20260905154524 79 62 1.0 2.0 0.00 0.00 0.00 39 1018.9
20260905154014 78 55 0.0 2.0 0.00 0.00 0.00 40 1018.8
20260905153518 77 41 0.0 2.0 0.00 0.00 0.00 46 1018.8
20260905153010 76 43 0.0 2.0 0.00 0.00 0.00 48 1018.8
20260905152507 75 120 0.0 2.0 0.00 0.00 0.00 47 1018.8
20260905152007 75 113 0.0 2.0 0.00 0.00 0.00 49 1018.8
20260905151520 75 138 0.0 2.0 0.00 0.00 0.00 47 1018.8
20260905151012 75 156 0.0 2.0 0.00 0.00 0.00 44 1018.8
20260905150515 74 169 0.0 2.0 0.00 0.00 0.00 43 1018.8
20260905150041 74 187 0.0 2.0 0.00 0.00 0.00 43 1018.8
20260905145517 73 113 0.0 2.0 0.00 0.00 0.00 46 1018.8
20260905145005 72 103 0.0 2.0 0.00 0.00 0.00 52 1018.8
20260905144517 71 117 0.0 2.0 0.00 0.00 0.00 49 1018.8
20260905144011 70 107 0.0 2.0 0.00 0.00 0.00 54 1018.8
20260905143510 69 106 1.0 2.0 0.00 0.00 0.00 53 1018.8
20260905143025 68 108 0.0 2.0 0.00 0.00 0.00 54 1018.9
20260905142513 67 108 0.0 2.0 0.00 0.00 0.00 55 1018.9
20260905142020 66 222 0.0 2.0 0.00 0.00 0.00 58 1018.9
20260905141535 65 236 0.0 2.0 0.00 0.00 0.00 59 1018.8
20260905141007 64 240 1.0 2.0 0.00 0.00 0.00 61 1018.8
20260905140510 62 221 0.0 2.0 0.00 0.00 0.00 62 1018.7
20260905140018 62 204 0.0 2.0 0.00 0.00 0.00 63 1018.7
20260905135512 62 204 0.0 2.0 0.00 0.00 0.00 63 1018.7
20260905135018 61 204 0.0 2.0 0.00 0.00 0.00 63 1018.7
20260905134531 61 199 0.0 2.0 0.00 0.00 0.00 66 1018.7
20260905134017 60 196 0.0 2.0 0.00 0.00 0.00 66 1018.7
20260905133515 59 194 0.0 2.0 0.00 0.00 0.00 65 1018.6
20260905133010 59 194 0.0 2.0 0.00 0.00 0.00 66 1018.7
20260905132510 59 194 0.0 2.0 0.00 0.00 0.00 65 1018.7
20260905132010 59 194 0.0 2.0 0.00 0.00 0.00 64 1018.6
20260905131535 59 194 0.0 2.0 0.00 0.00 0.00 64 1018.5
20260905131014 59 194 0.0 2.0 0.00 0.00 0.00 63 1018.5
20260905130515 58 195 0.0 2.0 0.00 0.00 0.00 62 1018.4
20260905130031 58 195 0.0 2.0 0.00 0.00 0.00 63 1018.4
20260905125517 58 193 0.0 2.0 0.00 0.00 0.00 63 1018.4
20260905125009 58 192 0.0 2.0 0.00 0.00 0.00 60 1018.2
20260905124515 58 192 0.0 2.0 0.00 0.00 0.00 63 1018.1
20260905124015 58 198 0.0 2.0 0.00 0.00 0.00 64 1018.0
20260905123512 58 198 0.0 2.0 0.00 0.00 0.00 64 1018.0
20260905123037 58 208 0.0 2.0 0.00 0.00 0.00 64 1017.9
20260905122515 58 208 0.0 2.0 0.00 0.00 0.00 64 1017.9
20260905122018 58 208 0.0 2.0 0.00 0.00 0.00 64 1017.9
20260905121509 58 217 0.0 2.0 0.00 0.00 0.00 64 1017.9
20260905121006 59 213 0.0 2.0 0.00 0.00 0.00 64 1017.9
20260905120507 59 213 0.0 2.0 0.00 0.00 0.00 63 1017.9
20260905120021 59 192 0.0 2.0 0.00 0.00 0.00 63 1017.9
20260905115505 59 193 0.0 2.0 0.00 0.00 0.00 63 1018.0
20260905115003 60 182 0.0 1.0 0.00 0.00 0.00 62 1018.0
20260905114514 60 191 0.0 2.0 0.00 0.00 0.00 61 1018.0
20260905114004 60 215 0.0 2.0 0.00 0.00 0.00 61 1018.0
20260905113507 60 215 0.0 2.0 0.00 0.00 0.00 60 1018.1
20260905113014 61 215 0.0 2.0 0.00 0.00 0.00 59 1018.1
20260905112508 61 215 0.0 2.0 0.00 0.00 0.00 58 1018.1
20260905112012 62 223 0.0 2.0 0.00 0.00 0.00 56 1018.1
20260905111504 62 223 0.0 2.0 0.00 0.00 0.00 56 1018.2
20260905111003 62 223 0.0 1.0 0.00 0.00 0.00 56 1018.3
20260905110505 63 227 0.0 2.0 0.00 0.00 0.00 54 1018.2
20260905110007 63 227 0.0 2.0 0.00 0.00 0.00 54 1018.2
20260905105508 64 227 0.0 2.0 0.00 0.00 0.00 53 1018.1
20260905105008 64 227 0.0 2.0 0.00 0.00 0.00 53 1018.0
20260905104518 65 350 0.0 3.0 0.00 0.00 0.00 52 1018.0
20260905104008 65 350 1.0 3.0 0.00 0.00 0.00 51 1018.0
20260905103504 65 291 0.0 2.0 0.00 0.00 0.00 49 1017.8
20260905103006 65 286 0.0 2.0 0.00 0.00 0.00 49 1017.8
20260905102504 66 288 0.0 2.0 0.00 0.00 0.00 48 1017.8
20260905102003 66 227 0.0 2.0 0.00 0.00 0.00 47 1017.8
20260905101514 66 264 0.0 2.0 0.00 0.00 0.00 47 1017.8
20260905101010 66 344 0.0 4.0 0.00 0.00 0.00 46 1017.7
20260905100510 66 252 1.0 4.0 0.00 0.00 0.00 45 1017.7
20260905100021 65 181 1.0 6.0 0.00 0.00 0.00 48 1017.7
20260905095503 64 198 1.0 6.0 0.00 0.00 0.00 50 1017.5
20260905095007 62 229 1.0 4.0 0.00 0.00 0.00 53 1017.5
20260905094506 61 188 1.0 2.0 0.00 0.00 0.00 55 1017.6
20260905094007 62 132 0.0 2.0 0.00 0.00 0.00 55 1017.5
20260905093509 62 118 0.0 2.0 0.00 0.00 0.00 55 1017.4
20260905093018 62 202 0.0 1.0 0.00 0.00 0.00 54 1017.3
20260905092511 62 203 0.0 2.0 0.00 0.00 0.00 54 1017.3
20260905092016 62 198 0.0 2.0 0.00 0.00 0.00 54 1017.2
20260905091506 62 170 0.0 2.0 0.00 0.00 0.00 53 1017.3
20260905091004 63 170 0.0 2.0 0.00 0.00 0.00 53 1017.3
20260905090012 63 185 0.0 2.0 0.00 0.00 0.00 52 1017.2
20260905085510 63 185 0.0 2.0 0.00 0.00 0.00 51 1017.1
20260905085009 63 183 0.0 2.0 0.00 0.00 0.00 52 1017.2
20260905084519 64 183 0.0 2.0 0.00 0.00 0.00 51 1017.1
20260905084012 64 183 0.0 2.0 0.00 0.00 0.00 51 1017.1
20260905083503 64 183 0.0 2.0 0.00 0.00 0.00 49 1017.1
20260905083009 64 183 0.0 2.0 0.00 0.00 0.00 49 1017.2
20260905082504 65 183 0.0 2.0 0.00 0.00 0.00 49 1017.2
20260905082009 65 186 0.0 2.0 0.00 0.00 0.00 49 1017.1
20260905081517 65 178 0.0 2.0 0.00 0.00 0.00 47 1017.1
20260905081009 65 159 0.0 2.0 0.00 0.00 0.00 47 1017.1
20260905080513 65 175 0.0 2.0 0.00 0.00 0.00 49 1017.1
20260905080023 65 174 0.0 2.0 0.00 0.00 0.00 48 1017.1
20260905075503 65 187 0.0 2.0 0.00 0.00 0.00 49 1017.1
20260905075004 65 169 0.0 2.0 0.00 0.00 0.00 49 1017.1
20260905074509 65 180 0.0 2.0 0.00 0.00 0.00 49 1017.1
20260905074008 66 108 0.0 2.0 0.00 0.00 0.00 49 1017.2
20260905073508 66 121 1.0 2.0 0.00 0.00 0.00 49 1017.1
20260905073023 66 191 1.0 3.0 0.00 0.00 0.00 47 1017.0
20260905072515 65 257 1.0 4.0 0.00 0.00 0.00 48 1017.0
20260905072011 65 236 0.0 4.0 0.00 0.00 0.00 49 1016.9
20260905071506 65 269 1.0 2.0 0.00 0.00 0.00 49 1017.0
20260905071003 65 219 0.0 2.0 0.00 0.00 0.00 50 1017.1
20260905070506 65 128 0.0 2.0 0.00 0.00 0.00 50 1017.1
20260905070016 65 123 0.0 2.0 0.00 0.00 0.00 49 1017.1
20260905065510 65 225 0.0 2.0 0.00 0.00 0.00 49 1017.2
20260905065014 65 232 0.0 2.0 0.00 0.00 0.00 48 1017.1
20260905064524 65 245 0.0 2.0 0.00 0.00 0.00 47 1017.1
20260905064012 65 213 0.0 2.0 0.00 0.00 0.00 48 1017.1
20260905063504 65 179 0.0 2.0 0.00 0.00 0.00 49 1017.2
20260905063008 65 198 0.0 2.0 0.00 0.00 0.00 49 1017.1
20260905062507 66 172 0.0 2.0 0.00 0.00 0.00 50 1017.1
20260905062007 66 164 0.0 2.0 0.00 0.00 0.00 49 1017.1
20260905061530 66 171 0.0 2.0 0.00 0.00 0.00 49 1017.0
20260905061011 67 171 0.0 2.0 0.00 0.00 0.00 48 1016.9
20260905060514 67 162 0.0 2.0 0.00 0.00 0.00 47 1016.9
20260905060046 68 157 0.0 2.0 0.00 0.00 0.00 47 1017.0
20260905055504 68 157 0.0 2.0 0.00 0.00 0.00 46 1016.9
20260905055006 69 157 0.0 2.0 0.00 0.00 0.00 46 1016.9
20260905054521 69 157 0.0 2.0 0.00 0.00 0.00 45 1017.1
20260905054008 70 157 0.0 2.0 0.00 0.00 0.00 44 1017.1
20260905053512 71 157 0.0 2.0 0.00 0.00 0.00 43 1017.0
20260905053028 71 157 0.0 2.0 0.00 0.00 0.00 41 1017.0
20260905052511 72 163 0.0 2.0 0.00 0.00 0.00 39 1017.0
20260905052015 72 239 0.0 2.0 0.00 0.00 0.00 38 1016.9
20260905051525 72 255 0.0 2.0 0.00 0.00 0.00 36 1016.9
20260905051005 72 246 0.0 2.0 0.00 0.00 0.00 36 1016.9
20260905050509 72 289 0.0 2.0 0.00 0.00 0.00 36 1017.0
20260905050019 72 290 0.0 2.0 0.00 0.00 0.00 37 1017.0
20260905045516 72 275 0.0 2.0 0.00 0.00 0.00 37 1017.1
20260905045014 72 329 0.0 2.0 0.00 0.00 0.00 37 1017.1
20260905044527 72 319 0.0 2.0 0.00 0.00 0.00 37 1017.1
20260905044014 73 257 0.0 2.0 0.00 0.00 0.00 37 1017.0
20260905043509 73 252 0.0 1.0 0.00 0.00 0.00 38 1016.9
20260905043014 73 250 0.0 2.0 0.00 0.00 0.00 36 1016.9
20260905042509 74 240 0.0 2.0 0.00 0.00 0.00 36 1016.9
20260905042010 74 240 0.0 2.0 0.00 0.00 0.00 36 1016.9
20260905041527 74 268 0.0 2.0 0.00 0.00 0.00 37 1016.9
20260905041013 74 269 0.0 2.0 0.00 0.00 0.00 36 1017.0
20260905040513 75 269 0.0 2.0 0.00 0.00 0.00 37 1017.1
20260905040030 75 267 0.0 2.0 0.00 0.00 0.00 36 1017.1
20260905035506 75 337 0.0 2.0 0.00 0.00 0.00 37 1017.2
20260905035006 76 335 0.0 2.0 0.00 0.00 0.00 34 1017.1
20260905034516 76 335 0.0 2.0 0.00 0.00 0.00 36 1017.2
20260905034010 76 335 0.0 0.0 0.00 0.00 0.00 34 1017.2
20260905033511 77 335 0.0 2.0 0.00 0.00 0.00 35 1017.2
20260905033026 78 335 0.0 2.0 0.00 0.00 0.00 34 1017.2
20260905032513 78 67 0.0 2.0 0.00 0.00 0.00 32 1017.1
20260905032013 79 65 0.0 2.0 0.00 0.00 0.00 34 1017.1
20260905031515 80 67 0.0 2.0 0.00 0.00 0.00 32 1017.1
20260905031010 80 316 0.0 4.0 0.00 0.00 0.00 31 1017.0
20260905030510 80 300 1.0 4.0 0.00 0.00 0.00 30 1016.9
20260905030021 79 343 1.0 4.0 0.00 0.00 0.00 31 1016.9
20260905025511 79 9 0.0 2.0 0.00 0.00 0.00 31 1016.9
20260905025016 79 9 0.0 1.0 0.00 0.00 0.00 32 1016.9
20260905024553 79 9 0.0 2.0 0.00 0.00 0.00 34 1016.8
20260905024013 79 5 0.0 2.0 0.00 0.00 0.00 34 1016.7
20260905023508 79 110 0.0 2.0 0.00 0.00 0.00 36 1016.6
20260905023019 78 352 0.0 2.0 0.00 0.00 0.00 35 1016.4
20260905022508 78 212 0.0 2.0 0.00 0.00 0.00 36 1016.3
20260905022012 78 243 0.0 2.0 0.00 0.00 0.00 35 1016.3
20260905021528 78 109 0.0 2.0 0.00 0.00 0.00 37 1016.2
20260905021013 78 269 0.0 2.0 0.00 0.00 0.00 35 1016.1
20260905020514 78 259 0.0 2.0 0.00 0.00 0.00 35 1016.1
20260905020033 78 110 0.0 2.0 0.00 0.00 0.00 37 1016.1
20260905015507 79 340 0.0 2.0 0.00 0.00 0.00 36 1015.9
20260905015008 79 232 1.0 2.0 0.00 0.00 0.00 35 1015.9
20260905014518 80 119 0.0 2.0 0.00 0.00 0.00 34 1015.9
20260905014015 81 119 0.0 2.0 0.00 0.00 0.00 34 1015.8
20260905013515 81 119 0.0 2.0 0.00 0.00 0.00 33 1015.7
20260905013027 82 119 0.0 0.0 0.00 0.00 0.00 32 1015.7
20260905012517 83 119 0.0 1.0 0.00 0.00 0.00 31 1015.7
20260905012017 83 119 0.0 1.0 0.00 0.00 0.00 30 1015.6
20260905011512 84 119 0.0 1.0 0.00 0.00 0.00 30 1015.6
20260905011009 85 119 0.0 0.0 0.00 0.00 0.00 30 1015.6
20260905010512 85 119 0.0 0.0 0.00 0.00 0.00 29 1015.6
20260905010023 86 119 0.0 0.0 0.00 0.00 0.00 28 1015.6
20260905005515 86 119 0.0 2.0 0.00 0.00 0.00 27 1015.5
20260905005014 87 119 0.0 2.0 0.00 0.00 0.00 27 1015.5
20260905004532 87 119 0.0 2.0 0.00 0.00 0.00 26 1015.5
20260905004016 88 122 0.0 2.0 0.00 0.00 0.00 26 1015.5
20260905003508 88 111 0.0 2.0 0.00 0.00 0.00 25 1015.5
20260905003018 89 95 0.0 2.0 0.00 0.00 0.00 24 1015.5
20260905002503 89 84 0.0 3.0 0.00 0.00 0.00 24 1015.5
20260905002003 90 100 0.0 3.0 0.00 0.00 0.00 23 1015.4
20260905001504 90 92 0.0 3.0 0.00 0.00 0.00 22 1015.4
20260905001004 91 146 0.0 3.0 0.00 0.00 0.00 23 1015.4
20260905000504 91 92 1.0 5.0 0.00 0.00 0.00 22 1015.4
20260905000008 92 85 1.0 7.0 0.00 0.00 0.00 21 1015.4
20260904235510 92 65 2.0 7.0 0.00 0.00 0.00 20 1015.3
20260904235012 92 194 0.0 3.0 0.00 0.00 0.00 17 1015.2
20260904234503 93 40 1.0 3.0 0.00 0.00 0.00 18 1015.2
20260904234003 93 127 0.0 3.0 0.00 0.00 0.00 18 1015.1
20260904233504 93 74 2.0 3.0 0.00 0.00 0.00 17 1015.1
20260904233006 93 24 2.0 3.0 0.00 0.00 0.00 17 1015.1
20260904232506 93 351 1.0 4.0 0.00 0.00 0.00 17 1015.1
20260904232006 94 44 3.0 4.0 0.00 0.00 0.00 18 1015.0
20260904231513 94 69 1.0 4.0 0.00 0.00 0.00 18 1015.0
20260904231009 93 46 0.0 3.0 0.00 0.00 0.00 19 1015.0
20260904230502 93 119 0.0 3.0 0.00 0.00 0.00 18 1015.0
20260904230004 92 52 2.0 3.0 0.00 0.00 0.00 18 1015.1
20260904225502 92 51 1.0 2.0 0.00 0.00 0.00 18 1015.1
20260904225005 92 38 0.0 3.0 0.00 0.00 0.00 19 1015.2
20260904224508 93 59 0.0 3.0 0.00 0.00 0.00 18 1015.2
20260904224008 93 32 1.0 5.0 0.00 0.00 0.00 18 1015.2
20260904223511 94 165 0.0 5.0 0.00 0.00 0.00 18 1015.2
20260904223023 94 120 1.0 5.0 0.00 0.00 0.00 17 1015.2
20260904222507 94 66 2.0 5.0 0.00 0.00 0.00 17 1015.1
20260904222003 95 43 1.0 3.0 0.00 0.00 0.00 16 1015.1
20260904221506 95 93 0.0 2.0 0.00 0.00 0.00 16 1015.2
20260904221006 95 32 1.0 4.0 0.00 0.00 0.00 16 1015.2
20260904220508 95 145 1.0 7.0 0.00 0.00 0.00 16 1015.2
20260904220012 95 196 1.0 7.0 0.00 0.00 0.00 17 1015.2
20260904215511 95 66 1.0 4.0 0.00 0.00 0.00 16 1015.2
20260904215013 95 241 1.0 6.0 0.00 0.00 0.00 16 1015.2
20260904214503 94 158 1.0 6.0 0.00 0.00 0.00 17 1015.2
20260904214003 94 14 1.0 6.0 0.00 0.00 0.00 17 1015.2
20260904213505 94 46 3.0 7.0 0.00 0.00 0.00 18 1015.2
20260904213007 94 61 1.0 10.0 0.00 0.00 0.00 18 1015.3
20260904212506 94 35 5.0 10.0 0.00 0.00 0.00 17 1015.2
20260904212010 94 196 1.0 6.0 0.00 0.00 0.00 18 1015.3
20260904211518 94 53 1.0 6.0 0.00 0.00 0.00 17 1015.4
20260904211013 94 169 2.0 9.0 0.00 0.00 0.00 18 1015.3
20260904210503 94 200 2.0 9.0 0.00 0.00 0.00 18 1015.4
20260904210004 94 113 1.0 8.0 0.00 0.00 0.00 17 1015.4
20260904205504 94 51 3.0 7.0 0.00 0.00 0.00 17 1015.5
20260904205007 94 115 1.0 8.0 0.00 0.00 0.00 17 1015.6
20260904204513 94 132 1.0 8.0 0.00 0.00 0.00 17 1015.6
20260904204009 94 106 2.0 11.0 0.00 0.00 0.00 17 1015.7
20260904203511 94 134 4.0 11.0 0.00 0.00 0.00 17 1015.7
20260904203030 94 140 2.0 5.0 0.00 0.00 0.00 18 1015.9
20260904202503 94 96 1.0 10.0 0.00 0.00 0.00 18 1016.0
20260904202003 94 97 1.0 10.0 0.00 0.00 0.00 17 1016.1
20260904201506 94 146 3.0 10.0 0.00 0.00 0.00 17 1016.3
20260904201008 93 100 2.0 9.0 0.00 0.00 0.00 17 1016.3
20260904200509 93 77 2.0 9.0 0.00 0.00 0.00 17 1016.3
20260904200037 93 95 1.0 6.0 0.00 0.00 0.00 17 1016.3
20260904195512 93 129 2.0 6.0 0.00 0.00 0.00 16 1016.4
20260904195019 93 67 2.0 6.0 0.00 0.00 0.00 17 1016.4
20260904194503 93 134 2.0 8.0 0.00 0.00 0.00 17 1016.4
20260904194009 94 79 2.0 8.0 0.00 0.00 0.00 16 1016.4
20260904193505 93 176 2.0 6.0 0.00 0.00 0.00 16 1016.3
20260904193012 93 334 1.0 7.0 0.00 0.00 0.00 17 1016.4
20260904192511 92 153 2.0 7.0 0.00 0.00 0.00 18 1016.4
20260904192012 92 173 1.0 5.0 0.00 0.00 0.00 17 1016.4
20260904191525 92 144 2.0 5.0 0.00 0.00 0.00 18 1016.5
20260904191014 92 115 2.0 7.0 0.00 0.00 0.00 18 1016.5
20260904190504 92 136 2.0 7.0 0.00 0.00 0.00 19 1016.6
20260904190004 91 157 2.0 8.0 0.00 0.00 0.00 19 1016.6
20260904185504 91 68 3.0 8.0 0.00 0.00 0.00 19 1016.6
20260904185008 91 232 2.0 8.0 0.00 0.00 0.00 19 1016.6
20260904184517 91 133 2.0 8.0 0.00 0.00 0.00 19 1016.7
20260904184016 90 175 2.0 8.0 0.00 0.00 0.00 20 1016.8
20260904183513 90 61 1.0 10.0 0.00 0.00 0.00 20 1016.9
20260904183028 89 24 2.0 10.0 0.00 0.00 0.00 20 1017.1